This demonstration page uses our WeatherBlox Daily Observations layout. Learn more.

Left ArrowRight Arrow

36.19886, -115.1175

Hourly Observations for February 17, 2021

Temp ( °F °C ) Dew Point ( °F °C ) Humidity (%) Winds ( mph kmh ) Pressure ( in mb ) Visibility ( mi km ) Precip ( " mm )
12:53 am 00:53 Clear 51 10.6 15 -9.4 24 24 NW 14 22 29.94 1014 10 16 N/A
1:53 am 01:53 Clear 50 10 16 -8.9 26 26 NNW 7 11 29.96 1015 10 16 N/A
2:53 am 02:53 Clear 48 8.9 16 -8.9 28 28 NNE 9 15 29.96 1015 10 16 N/A
3:53 am 03:53 Clear 48 8.9 15 -9.4 27 27 NNW 9 15 29.96 1015 10 16 N/A
4:53 am 04:53 Clear 47 8.3 15 -9.4 28 28 NNW 12 19 29.98 1015 10 16 N/A
5:53 am 05:53 Clear 45 7.2 16 -8.9 31 31 NNW 5 7 29.99 1016 10 16 N/A
6:53 am 06:53 Sunny 46 7.8 15 -9.4 29 29 NNW 13 20 30.00 1016 10 16 N/A
7:53 am 07:53 Sunny 48 8.9 16 -8.9 28 28 N 9 15 30.03 1017 10 16 N/A
8:53 am 08:53 Sunny 52 11.1 15 -9.4 23 23 NNW 10 17 30.04 1017 10 16 N/A
9:53 am 09:53 Sunny 54 12.2 12 -11.1 19 19 NW 21 33 30.03 1017 10 16 N/A
10:53 am 10:53 Sunny 56 13.3 12 -11.1 17 17 NNW 22 35 30.03 1017 10 16 N/A
11:53 am 11:53 Mostly Cloudy 56 13.3 11 -11.7 17 17 NW 22 35 30.01 1016 10 16 N/A
12:53 pm 12:53 Sunny 57 13.9 12 -11.1 17 17 NW 24 39 30.00 1016 10 16 N/A
1:53 pm 13:53 Sunny 58 14.4 12 -11.1 16 16 NNW 21 33 30.00 1016 10 16 N/A
2:53 pm 14:53 Sunny 58 14.4 2 -16.7 10 10 NNW 25 41 29.99 1016 10 16 N/A
3:53 pm 15:53 Mostly Sunny 57 13.9 2 -16.7 10 10 NW 21 33 30.01 1016 10 16 N/A
4:53 pm 16:53 Sunny 56 13.3 1 -17.2 10 10 N 15 24 30.03 1017 10 16 N/A
5:53 pm 17:53 Clear 54 12.2 -1 -18.3 10 10 NNE 10 17 30.07 1018 10 16 N/A
6:53 pm 18:53 Clear 52 11.1 2 -16.7 13 13 N 9 15 30.11 1020 10 16 N/A
7:53 pm 19:53 Clear 52 11.1 1 -17.2 12 12 N 13 20 30.14 1021 10 16 N/A
8:53 pm 20:53 Clear 49 9.4 2 -16.7 14 14 NW 14 22 30.18 1022 10 16 N/A
9:53 pm 21:53 Clear 48 8.9 4 -15.6 16 16 NNW 9 15 30.21 1023 10 16 N/A
10:53 pm 22:53 Clear 47 8.3 4 -15.6 17 17 N 8 13 30.23 1024 10 16 N/A
11:53 pm 23:53 Clear 46 7.8 4 -15.6 17 17 NNW 9 15 30.25 1025 10 16 N/A

Powered by AerisWeather